Total_Precipitation_Accumulation
0.99 1.02 0.93 1.07 1.13 1.12 1.12 1.11 1.01 0.95 0.92 0.80 0.78 0.76 0.67 0.52 0.52 0.56 0.71 0.59 0.68 0.92 0.99 0.92 0.82 0.69 0.63 0.61 0.72 0.83 0.90 0.85 0.91 1.02 0.93 0.89 0.83 0.71 0.62 0.50 0.39 0.37 0.32
0.88 1.05 0.98 0.97 1.04 1.22 1.27 1.20 1.09 1.09 1.06 0.88 0.84 0.90 0.79 0.69 0.66 0.67 0.77 0.65 0.46 0.51 0.74 0.88 0.89 0.81 0.72 0.71 0.75 0.89 1.00 0.89 0.84 0.89 0.93 0.95 0.93 0.77 0.66 0.54 0.46 0.42 0.37
0.82 0.99 0.95 0.85 0.83 0.99 1.16 1.27 1.29 1.22 1.08 0.96 0.88 0.88 0.79 0.74 0.72 0.84 0.84 0.78 0.59 0.38 0.47 0.67 0.79 0.83 0.81 0.85 0.84 0.90 0.97 0.89 0.87 0.89 0.94 0.92 0.91 0.88 0.78 0.68 0.61 0.63 0.59
0.61 0.80 0.87 0.78 0.78 0.94 1.14 1.29 1.37 1.40 1.26 1.19 1.14 1.00 0.87 0.80 0.76 0.84 0.88 0.88 0.84 0.64 0.56 0.51 0.56 0.66 0.78 0.86 0.93 0.94 0.92 0.85 0.82 0.84 0.87 0.81 0.77 0.74 0.70 0.73 0.74 0.73 0.76
0.53 0.73 0.91 0.94 0.94 1.03 1.14 1.19 1.36 1.41 1.42 1.32 1.21 1.05 0.93 0.88 0.80 0.75 0.86 0.91 0.92 0.85 0.78 0.54 0.43 0.44 0.58 0.76 0.90 0.97 0.98 0.85 0.73 0.73 0.68 0.67 0.67 0.64 0.64 0.64 0.67 0.62 0.64
0.65 0.84 1.06 1.15 1.26 1.27 1.29 1.42 1.68 1.65 1.49 1.43 1.34 1.11 0.91 0.88 0.86 0.83 0.80 0.89 0.98 0.94 0.83 0.70 0.55 0.36 0.39 0.56 0.78 0.90 1.00 0.96 0.84 0.81 0.71 0.62 0.58 0.60 0.62 0.55 0.56 0.51 0.51
0.79 1.00 1.21 1.44 1.56 1.43 1.41 1.58 1.81 1.95 1.76 1.60 1.57 1.40 1.18 0.96 0.89 0.89 0.85 0.92 1.02 1.04 0.97 0.95 0.79 0.63 0.49 0.44 0.48 0.66 0.88 0.98 0.97 0.97 0.91 0.81 0.69 0.58 0.57 0.49 0.46 0.45 0.46
0.90 0.95 1.15 1.35 1.42 1.45 1.47 1.56 1.72 2.00 1.92 1.73 1.77 2.00 1.77 1.45 1.01 0.82 0.90 0.96 1.07 1.07 0.98 0.87 0.87 0.80 0.70 0.67 0.40 0.37 0.54 0.83 1.04 1.01 1.01 0.97 0.86 0.64 0.57 0.50 0.46 0.43 0.45
1.19 1.16 1.19 1.32 1.40 1.52 1.53 1.56 1.59 1.77 1.88 1.82 1.85 2.24 2.06 1.81 1.63 1.12 0.87 0.95 1.06 1.14 1.08 1.01 0.97 0.94 0.85 0.82 0.69 0.39 0.33 0.47 0.83 1.02 1.10 1.09 0.94 0.75 0.61 0.57 0.54 0.48 0.46
1.50 1.47 1.47 1.56 1.50 1.48 1.45 1.46 1.46 1.60 1.85 1.89 1.84 1.78 1.73 1.72 1.94 1.64 1.13 0.98 1.03 1.04 1.08 1.02 1.03 1.07 1.08 0.97 0.88 0.64 0.39 0.36 0.62 0.99 1.25 1.19 0.98 0.82 0.70 0.68 0.65 0.61 0.53
2.08 2.00 1.92 1.77 1.59 1.51 1.50 1.53 1.53 1.59 1.67 1.74 1.72 1.67 1.67 1.61 1.45 1.53 1.46 1.21 1.05 0.96 1.00 1.05 1.07 1.08 1.18 1.18 1.08 0.85 0.59 0.40 0.47 0.79 1.15 1.30 1.19 0.99 0.84 0.72 0.67 0.64 0.55
2.03 1.97 1.84 1.61 1.44 1.37 1.43 1.55 1.56 1.59 1.58 1.61 1.58 1.48 1.47 1.47 1.38 1.45 1.37 1.36 1.36 1.04 0.91 0.92 0.99 1.00 1.01 1.17 1.16 1.23 0.91 0.60 0.47 0.59 0.80 1.06 1.22 1.21 1.10 0.96 0.79 0.71 0.63
1.42 1.45 1.45 1.41 1.35 1.29 1.36 1.54 1.61 1.64 1.64 1.60 1.53 1.44 1.47 1.38 1.45 1.62 1.59 1.47 1.41 1.10 0.88 0.77 0.81 0.88 0.91 1.03 1.19 1.40 1.15 0.88 0.61 0.52 0.58 0.71 0.83 1.01 1.22 1.29 1.21 1.07 0.98
1.24 1.25 1.32 1.32 1.31 1.32 1.33 1.39 1.50 1.62 1.64 1.57 1.53 1.58 1.54 1.40 1.47 1.49 1.48 1.60 1.45 1.23 0.97 0.70 0.64 0.70 0.83 0.89 1.12 1.36 1.00 0.94 0.76 0.60 0.54 0.56 0.61 0.63 0.78 1.05 1.30 1.42 1.42
0.93 1.04 1.14 1.20 1.16 1.17 1.21 1.30 1.43 1.49 1.57 1.64 1.63 1.62 1.61 1.54 1.55 1.53 1.61 1.63 1.58 1.35 1.09 0.81 0.68 0.60 0.71 0.80 1.06 1.02 0.87 0.91 0.83 0.68 0.59 0.53 0.51 0.49 0.54 0.63 0.76 0.94 1.09
0.82 0.89 0.86 0.82 0.81 0.86 0.89 0.99 1.16 1.25 1.28 1.37 1.40 1.44 1.46 1.47 1.53 1.54 1.59 1.65 1.61 1.46 1.27 1.04 0.84 0.72 0.79 0.77 0.91 0.86 0.90 1.08 0.93 0.77 0.64 0.55 0.49 0.47 0.44 0.43 0.44 0.46 0.53
0.52 0.60 0.55 0.52 0.58 0.62 0.59 0.68 0.78 0.89 0.98 1.03 1.04 1.08 1.15 1.22 1.30 1.35 1.47 1.54 1.56 1.49 1.23 1.11 0.96 0.84 0.88 0.91 0.93 0.88 0.95 0.97 0.89 0.83 0.70 0.58 0.52 0.46 0.43 0.42 0.39 0.37 0.37
0.22 0.29 0.32 0.32 0.40 0.51 0.52 0.58 0.63 0.65 0.71 0.75 0.78 0.85 0.91 0.97 1.07 1.15 1.22 1.30 1.43 1.46 1.36 1.20 1.07 0.94 0.85 0.87 1.03 1.09 1.09 1.02 0.99 1.07 0.98 0.81 0.70 0.58 0.49 0.44 0.41 0.38 0.37
0.16 0.20 0.23 0.26 0.29 0.39 0.50 0.56 0.58 0.54 0.53 0.52 0.52 0.56 0.66 0.74 0.86 0.94 1.00 1.08 1.22 1.27 1.34 1.25 1.18 1.09 0.93 0.86 1.00 1.02 1.11 1.29 1.20 1.27 1.39 1.20 0.94 0.76 0.63 0.56 0.50 0.45 0.42
0.16 0.15 0.14 0.16 0.24 0.34 0.43 0.51 0.55 0.52 0.49 0.49 0.49 0.50 0.53 0.54 0.61 0.72 0.86 1.03 1.18 1.31 1.36 1.29 1.24 1.20 1.11 1.02 1.07 1.14 1.23 1.33 1.39 1.27 1.30 1.28 1.20 1.07 0.89 0.75 0.69 0.63 0.58
0.12 0.08 0.06 0.08 0.16 0.22 0.26 0.40 0.46 0.45 0.48 0.45 0.47 0.51 0.52 0.49 0.49 0.53 0.54 0.72 0.93 1.15 1.28 1.33 1.34 1.35 1.27 1.19 1.10 1.16 1.28 1.42 1.54 1.55 1.46 1.32 1.27 1.13 1.01 0.90 0.81 0.76 0.73
0.09 0.07 0.05 0.05 0.07 0.08 0.14 0.21 0.30 0.40 0.47 0.50 0.51 0.54 0.52 0.47 0.52 0.51 0.49 0.51 0.62 0.76 0.92 1.05 1.15 1.21 1.24 1.31 1.37 1.38 1.41 1.49 1.56 1.57 1.46 1.49 1.43 1.30 1.13 0.94 0.91 0.90 0.87
0.04 0.04 0.04 0.04 0.04 0.04 0.05 0.08 0.18 0.34 0.48 0.49 0.48 0.61 0.67 0.61 0.60 0.64 0.66 0.60 0.53 0.52 0.64 0.82 0.95 1.02 1.09 1.18 1.38 1.43 1.45 1.46 1.38 1.45 1.33 1.40 1.37 1.24 1.16 1.10 1.09 0.98 0.95
0.02 0.03 0.05 0.07 0.05 0.02 0.02 0.03 0.09 0.24 0.39 0.43 0.43 0.55 0.80 0.84 0.74 0.70 0.75 0.85 0.77 0.61 0.58 0.62 0.76 0.89 0.93 1.08 1.40 1.61 1.57 1.37 1.30 1.36 1.29 1.31 1.27 1.16 1.10 1.08 1.11 1.00 0.93
0.03 0.03 0.04 0.06 0.05 0.04 0.04 0.04 0.08 0.19 0.29 0.33 0.37 0.49 0.65 0.80 0.74 0.70 0.70 0.78 0.81 0.72 0.65 0.64 0.60 0.68 0.80 0.97 1.23 1.48 1.57 1.50 1.36 1.32 1.19 1.12 1.16 1.17 1.20 1.15 1.08 1.05 0.96
0.03 0.03 0.03 0.03 0.03 0.02 0.04 0.05 0.07 0.13 0.17 0.17 0.23 0.40 0.55 0.55 0.52 0.57 0.69 0.80 0.89 0.73 0.63 0.71 0.70 0.72 0.74 0.92 1.24 1.43 1.52 1.48 1.37 1.34 1.26 1.16 1.15 1.18 1.37 1.33 1.16 1.09 1.02